This is the latest recevied weather packets stored in our database for station/object K2ATL. If no packets are shown the sender has not sent any weather packets the latest 10 day(s).
| Time | Temp. | Humidity | Pressure | Rain* | Wind** | Luminosity | Snow |
|---|---|---|---|---|---|---|---|
| 1787836689 | 19.44° C | 99% | 1102.4 hPa | 0 mm | - | 88 W/m² | - |
| 1787836388 | 19.44° C | 99% | 1102.3 hPa | 0 mm | - | 82 W/m² | - |
| 1787836084 | 20° C | 99% | 1102.2 hPa | 0 mm | - | 76 W/m² | - |
| 1787835781 | 20° C | 99% | 1102.2 hPa | 0 mm | - | 63 W/m² | - |
| 1787835479 | 20° C | 99% | 1102.4 hPa | 0 mm | - | 62 W/m² | - |
| 1787835174 | 19.44° C | 99% | 1102.3 hPa | 0 mm | - | 58 W/m² | - |
| 1787834875 | 19.44° C | 99% | 1102.4 hPa | 0 mm | - | 56 W/m² | - |
| 1787834574 | 20° C | 99% | 1102.4 hPa | 0 mm | - | 50 W/m² | - |
| 1787834275 | 20° C | 99% | 1102.1 hPa | 0 mm | - | 43 W/m² | - |
| 1787833971 | 20° C | 99% | 1102.3 hPa | 0 mm | - | 34 W/m² | - |
| 1787833666 | 20° C | 99% | 1102.2 hPa | 0 mm | - | 33 W/m² | - |
| 1787833361 | 20° C | 99% | 1102.1 hPa | 0 mm | - | 36 W/m² | - |
| 1787833056 | 20° C | 99% | 1102.2 hPa | 0 mm | - | 37 W/m² | - |
| 1787832752 | 20° C | 99% | 1102.1 hPa | 0 mm | - | 33 W/m² | - |
| 1787832452 | 20° C | 99% | 1102.2 hPa | 0 mm | - | 36 W/m² | - |
| 1787832151 | 20° C | 99% | 1102.3 hPa | 0 mm | - | 28 W/m² | - |
| 1787831849 | 20° C | 99% | 1102.1 hPa | 1.27 mm | - | 23 W/m² | - |
| 1787831545 | 20° C | 99% | 1102.2 hPa | 0 mm | - | 19 W/m² | - |
| 1787831243 | 20° C | 99% | 1102.4 hPa | 0 mm | - | 15 W/m² | - |
| 1787830940 | 20° C | 99% | 1102.4 hPa | 0 mm | - | 11 W/m² | - |
| 1787830634 | 20° C | 99% | 1102.4 hPa | 0 mm | - | 8 W/m² | - |
| 1787830333 | 20° C | 99% | 1102.5 hPa | 1.78 mm | - | 5 W/m² | - |
| 1787830028 | 20° C | 99% | 1102.4 hPa | 3.05 mm | - | 4 W/m² | - |
| 1787829728 | 20° C | 99% | 1102.4 hPa | 1.27 mm | - | 3 W/m² | - |
| 1787829422 | 20.56° C | 99% | 1102.4 hPa | 1.78 mm | - | 2 W/m² | - |
* Rain latest hour (hover to see other rain measurements)
** Current wind speed in m/s (hover to see current wind gust speed)